SCP
0 0 0 0 0 0 0 0 0 0 0 0 0 0 0 0 0 0 0 0 0 0 0 1 1 1 1 1 1 2 3 3 3 3 2 2 2 2 1 1 1 1 0 0
0 0 0 0 0 0 0 0 0 0 0 0 0 0 0 0 0 0 0 0 0 0 0 1 1 1 1 1 1 2 3 3 3 2 2 1 1 1 1 1 1 1 1 0
0 0 0 0 0 0 0 0 0 0 0 0 0 0 0 0 0 0 0 0 0 0 1 1 1 1 1 1 1 2 2 2 2 1 1 1 1 1 1 1 1 1 1 1
0 0 0 0 0 0 0 0 0 0 0 0 0 0 0 0 0 0 0 0 0 0 1 1 2 1 1 1 1 1 1 1 1 1 1 1 1 1 1 1 1 1 1 1
0 0 0 0 0 0 0 0 0 0 0 0 0 0 0 0 0 0 0 0 0 0 1 1 2 1 1 1 1 1 1 1 1 1 1 1 1 1 1 1 1 1 1 1
0 0 0 0 0 0 0 0 0 0 0 0 0 0 0 0 0 0 0 0 0 0 1 1 2 1 1 1 1 1 1 1 1 1 1 1 1 1 1 1 1 1 1 1
0 0 0 0 0 0 0 0 0 0 0 0 0 0 0 0 0 0 0 0 0 0 1 1 1 1 1 1 1 1 1 1 1 0 0 0 1 1 1 1 1 1 1 1
0 0 0 0 0 0 0 0 0 0 0 0 0 0 0 0 0 0 0 0 0 0 1 1 1 1 1 1 1 1 1 1 1 0 0 0 0 1 0 1 1 1 1 1
0 0 0 0 0 0 0 0 0 0 0 0 0 0 0 0 0 0 0 0 0 0 1 1 1 1 1 1 1 1 1 1 1 0 0 0 0 0 0 0 0 0 0 0
0 0 0 0 0 0 0 0 0 0 0 0 0 0 0 0 0 0 0 0 0 0 0 0 0 0 1 1 1 1 1 1 1 0 0 0 0 0 0 0 0 0 0 0
0 0 0 0 0 0 0 0 0 0 0 0 0 0 0 0 0 0 0 0 0 0 0 0 0 0 0 1 1 1 1 1 1 1 0 0 0 0 0 0 0 0 0 0
0 0 0 0 0 0 0 0 0 0 0 0 0 0 0 0 0 0 0 0 0 0 0 0 0 0 0 1 1 1 1 1 1 1 1 1 0 0 0 0 0 0 0 0
0 0 0 0 0 0 0 0 0 0 0 0 0 0 0 0 0 0 0 0 0 0 0 0 0 0 0 1 1 1 1 2 2 2 1 1 1 0 0 0 0 0 0 0
0 0 0 0 0 0 0 0 0 0 0 0 0 0 0 0 0 0 0 0 0 0 0 0 0 0 0 0 1 1 1 2 2 2 1 1 1 1 1 0 0 0 0 0
0 0 0 0 0 0 0 0 0 0 0 0 0 0 0 0 0 0 0 0 0 0 0 0 0 0 0 0 0 1 1 2 2 2 1 1 1 1 1 1 1 1 0 0
0 0 0 0 0 0 0 0 0 0 0 0 0 0 0 0 0 0 0 0 0 0 0 0 0 0 0 1 1 1 1 2 2 2 1 1 1 1 1 1 1 1 1 1
0 0 0 0 0 0 0 0 0 0 0 0 0 0 0 0 0 0 0 0 0 0 0 0 1 1 1 1 1 1 1 1 1 1 1 1 1 1 1 1 1 1 1 1
0 0 0 0 0 0 0 0 0 0 0 0 0 0 0 0 0 0 0 0 0 0 0 0 0 0 1 1 1 1 1 1 1 1 1 1 1 1 1 1 1 1 1 1
0 0 0 0 0 0 -0 0 0 0 0 0 0 0 0 0 0 0 0 0 0 0 0 0 0 0 0 0 0 0 0 0 1 1 1 1 1 1 1 1 1 1 1 1
0 0 0 0 0 -0 -0 0 0 0 0 0 0 0 0 0 0 0 0 0 0 0 0 0 0 0 0 0 0 0 0 0 0 0 0 0 0 0 0 0 1 1 1 1
0 0 0 0 -0 -0 -0 -0 0 0 0 0 0 0 0 0 0 0 0 0 0 0 0 0 0 0 0 0 0 0 0 0 0 0 0 0 0 0 0 0 0 0 0 0
0 0 0 0 0 -0 -0 -0 0 0 0 0 0 0 0 0 0 0 0 0 0 0 0 0 0 0 0 0 0 0 0 0 0 0 0 0 0 0 0 0 0 0 0 0
0 0 0 0 0 0 -0 -0 0 0 0 0 0 0 0 0 0 0 0 0 0 0 0 0 0 0 0 0 0 0 0 0 0 0 0 0 0 0 0 0 0 0 0 0
0 0 0 0 0 0 -0 -0 0 0 0 0 0 0 0 0 0 0 0 0 0 0 0 0 0 0 0 0 0 0 0 0 0 0 0 0 0 0 0 0 0 0 0 0
0 0 0 0 0 0 0 0 0 0 0 0 0 0 0 0 0 0 0 0 0 0 0 0 0 0 0 0 0 0 0 0 0 0 0 0 0 0 0 0 0 0 0 0
0 0 0 0 0 0 0 0 0 0 0 0 0 0 0 0 0 0 0 0 0 0 0 0 0 0 0 0 0 0 0 0 0 0 0 0 0 0 0 0 0 0 0 0
Wind_Speed
4 7 8 7 4 5 7 10 12 11 12 12 14 14 13 10 7 6 6 7 8 9 10 9 10 7 6 5 5 8 9 6 4 3 2 1 2 2 3 2 3 3 3 4
6 7 4 1 2 5 6 8 9 11 14 12 14 17 16 13 10 8 10 10 9 8 9 12 10 7 5 6 6 8 8 6 5 3 2 2 2 2 3 3 3 4 5 5
8 3 0 4 6 7 7 5 5 6 10 10 14 16 18 17 13 10 10 9 6 2 11 15 12 9 7 7 6 7 8 7 5 4 2 1 2 1 2 4 3 4 5 5
8 4 5 8 10 8 7 5 5 4 2 4 5 9 14 13 9 7 6 6 6 4 7 14 12 11 9 7 7 9 8 7 6 5 3 4 4 4 5 4 5 5 6 6
8 5 7 10 10 7 7 6 8 8 7 8 10 10 10 10 8 4 2 3 4 5 9 14 12 12 11 9 7 8 7 7 7 6 6 4 3 3 3 3 5 6 5 6
13 10 8 8 8 6 4 5 8 9 7 9 11 10 7 4 5 4 4 3 2 5 9 13 11 11 11 9 7 7 7 6 5 5 5 5 5 4 3 3 3 3 3 4
14 9 4 3 8 8 7 7 4 5 6 5 3 5 7 5 3 1 3 3 2 6 9 13 12 11 9 8 7 8 7 7 6 5 6 6 6 5 5 5 4 4 3 3
14 10 5 4 9 10 8 10 7 5 4 3 1 6 5 6 5 2 2 2 6 7 10 13 11 11 9 8 7 7 8 7 7 6 7 7 7 3 1 2 3 3 2 2
12 14 14 13 13 13 13 11 9 9 11 11 7 8 4 3 3 3 5 5 6 9 11 13 12 12 10 9 8 7 7 7 7 7 6 3 3 5 3 3 2 2 2 2
13 18 16 18 17 13 12 10 5 3 4 7 5 2 5 5 6 4 1 5 6 6 5 6 7 9 11 10 8 8 7 7 7 6 4 2 1 3 3 1 3 4 3 3
15 14 16 15 11 10 11 9 6 3 3 2 4 2 6 10 12 11 8 6 6 7 6 4 3 5 8 10 10 8 7 7 7 6 4 5 2 1 3 2 3 3 3 4
10 9 12 15 9 13 9 10 6 1 4 3 2 2 9 9 9 13 15 12 7 3 3 4 4 3 5 8 10 10 10 8 7 6 5 6 5 4 3 4 5 5 5 5
10 8 10 10 7 13 9 13 14 7 3 4 3 2 14 15 15 13 13 14 12 8 5 2 1 1 2 4 6 8 9 9 8 7 6 6 5 6 5 5 6 6 6 6
5 9 8 9 9 5 7 14 16 10 3 4 5 8 15 15 14 12 10 11 9 7 7 4 2 1 2 3 4 5 7 8 9 7 5 5 5 6 6 5 5 5 6 6
8 11 13 12 11 8 8 12 12 8 6 4 7 10 13 13 13 11 10 8 7 5 5 4 3 2 2 3 3 4 4 7 10 8 6 5 5 5 6 4 4 4 4 5
9 11 15 15 13 7 10 19 17 14 13 11 10 10 15 17 13 14 14 11 9 6 6 6 5 4 2 1 2 3 3 4 8 8 6 5 3 2 3 3 4 4 4 4
8 11 12 12 13 8 9 15 15 14 15 13 13 13 17 18 14 15 15 14 13 12 11 10 10 10 9 8 7 6 5 5 4 3 2 1 1 1 2 2 3 4 4 4
10 11 7 9 10 5 6 7 13 10 13 18 17 18 20 17 8 13 14 14 14 13 13 12 11 11 11 11 11 10 9 9 8 7 5 5 4 4 3 3 4 4 4 4
11 8 5 5 6 6 6 9 11 8 6 15 18 20 22 21 11 13 16 13 12 12 10 9 10 10 10 10 9 9 9 9 8 7 7 8 8 7 6 5 4 4 4 4
11 7 5 6 6 5 4 10 12 6 2 12 17 19 20 21 13 13 15 10 9 8 8 8 9 9 9 9 9 9 9 8 7 7 7 7 6 6 6 6 5 4 3 3
12 10 9 8 5 3 2 8 7 4 6 14 15 16 17 17 14 15 14 7 5 5 6 6 6 6 7 8 9 8 7 7 6 5 5 5 5 4 4 5 4 4 3 3
10 9 9 8 7 4 6 6 5 4 8 11 14 15 16 17 17 16 14 6 4 5 5 5 4 4 5 6 6 6 5 4 4 3 3 3 4 4 4 4 3 3 2 2
7 7 5 5 4 5 4 4 4 6 10 12 13 15 16 17 16 15 13 7 3 3 4 3 3 3 5 5 5 4 3 2 3 3 2 3 4 3 3 3 3 2 2 2
5 6 5 5 4 8 5 7 8 9 10 12 13 15 15 15 15 13 11 7 1 3 4 0 1 3 3 3 3 4 3 4 1 3 2 4 4 3 4 4 5 5 5 5
3 4 4 4 6 7 7 10 11 13 12 12 13 14 14 15 14 12 10 7 2 3 3 1 1 2 1 1 3 4 4 5 4 3 4 4 4 3 3 4 5 5 6 5
1 3 4 4 6 6 9 10 11 12 13 13 14 15 14 14 12 10 9 6 3 1 2 2 1 2 3 2 3 4 3 4 5 4 4 3 2 2 2 3 4 7 6 7
Wind_Direction
244 254 258 266 286 287 295 304 307 317 347 329 298 291 284 270 244 230 232 237 229 206 181 150 129 122 132 137 139 134 137 135 117 116 137 145 159 133 126 139 175 202 250 236
267 269 293 319 294 285 289 295 304 319 338 328 308 299 288 274 252 229 227 232 223 204 151 126 125 125 133 121 115 116 118 122 123 126 140 150 161 172 168 173 194 204 232 245
275 264 172 258 258 262 264 265 280 301 326 320 315 295 280 270 257 236 223 231 241 234 155 141 139 131 121 116 118 111 117 121 128 136 136 157 152 212 187 189 204 211 217 239
268 223 218 250 255 249 260 227 220 244 288 285 297 296 288 290 283 251 219 212 220 221 150 139 138 133 130 125 121 122 131 145 156 164 185 196 185 201 206 196 198 207 210 222
282 264 256 270 276 253 255 204 210 225 231 254 246 254 269 291 293 281 237 200 196 165 137 135 136 137 133 129 128 132 144 154 161 178 184 204 214 213 230 207 185 197 200 206
265 260 256 276 299 280 253 218 228 231 239 254 242 229 269 308 338 1 359 11 109 135 132 130 128 122 123 134 141 142 149 149 155 175 188 200 216 217 225 218 183 181 182 202
312 284 223 232 277 263 237 246 262 243 224 261 332 234 237 226 251 342 355 4 72 130 137 128 124 122 130 143 150 149 157 149 162 186 211 210 209 219 213 199 184 178 183 194
321 325 18 341 309 303 274 253 246 269 273 293 322 265 262 206 194 164 109 99 124 139 136 132 136 137 146 155 160 161 162 161 169 197 219 214 188 188 214 143 145 164 172 183
321 312 321 317 304 291 286 276 277 268 270 269 230 213 195 190 169 167 155 151 144 145 143 145 149 151 159 163 167 169 164 166 172 205 226 225 168 155 159 151 144 129 143 165
316 311 311 312 306 296 303 298 279 263 288 282 284 20 9 350 356 333 138 110 92 99 108 131 147 160 164 166 170 177 179 179 176 205 201 141 69 131 119 120 149 154 173 168
318 307 307 306 316 332 335 325 309 297 253 273 320 27 37 22 2 346 10 61 96 104 110 118 156 195 171 167 170 176 187 190 172 185 177 141 171 159 149 174 147 148 169 169
336 319 306 305 13 24 354 317 298 274 292 302 287 45 45 38 8 358 353 353 354 40 120 148 161 180 184 179 179 184 190 190 171 174 166 162 172 167 195 191 172 177 183 183
339 316 313 316 360 26 358 318 318 321 307 287 283 49 27 12 1 351 338 324 316 328 337 351 99 161 210 199 192 192 189 181 165 167 166 167 177 184 204 209 182 182 184 187
290 289 294 303 308 300 281 291 303 308 310 309 355 11 13 359 338 323 305 293 301 310 313 316 325 258 227 226 217 204 189 171 159 158 167 182 205 190 195 210 188 186 196 193
324 311 315 309 297 278 290 316 316 336 3 23 25 33 5 340 322 326 329 322 313 301 296 302 292 265 223 209 212 209 193 168 154 152 173 194 226 202 187 197 184 199 217 212
327 315 316 310 306 300 37 23 27 41 44 52 45 25 352 347 357 7 2 1 2 12 15 6 2 13 348 222 182 163 147 145 148 155 180 193 215 233 183 189 194 210 217 228
337 332 325 309 305 297 53 14 14 34 36 38 36 12 355 360 12 18 11 17 28 34 34 32 35 33 28 40 56 77 78 83 100 121 127 143 200 274 266 242 233 223 217 217
348 344 330 320 336 58 63 10 5 6 34 23 12 6 360 355 355 29 20 25 27 31 36 36 40 42 45 48 49 54 53 50 50 42 31 26 21 3 343 314 286 266 247 227
1 354 341 341 349 85 39 6 351 328 343 14 0 354 353 351 354 16 15 28 28 24 30 33 38 47 46 45 51 60 60 54 47 35 31 35 33 23 8 349 324 305 291 280
3 9 4 359 7 35 355 328 318 266 265 0 347 343 347 351 2 354 349 17 34 23 26 34 34 40 47 45 46 54 56 54 46 36 37 38 35 24 7 351 344 342 337 330
355 2 9 5 33 76 331 328 344 48 313 320 324 331 340 343 335 326 333 5 47 43 29 45 43 38 48 58 57 53 52 54 52 42 42 41 31 29 15 355 356 3 13 14
9 2 5 2 19 31 12 359 10 314 301 308 317 325 328 327 325 329 333 351 45 59 47 50 54 48 47 54 71 68 49 54 70 55 47 70 60 30 19 4 1 6 22 30
34 18 349 354 7 17 355 357 336 305 304 311 315 317 320 323 326 328 329 339 58 69 73 66 67 70 72 58 53 68 44 6 87 68 40 75 92 67 27 8 2 4 17 31
24 10 342 341 5 4 18 9 339 324 311 310 309 312 317 320 322 324 324 328 74 93 88 85 202 98 81 80 70 56 15 333 87 113 78 79 75 69 52 28 18 26 24 23
344 339 332 333 5 353 349 342 328 320 317 318 316 316 317 318 319 323 325 335 32 103 124 259 10 55 76 96 88 75 28 339 336 92 91 89 86 85 82 69 44 32 50 37
32 354 343 348 358 331 319 323 322 320 323 324 320 319 319 316 315 324 331 337 352 35 129 145 120 293 304 44 65 84 50 347 356 50 61 69 89 88 106 130 108 59 61 56